Location: Unspecified
(0.0000°N, 0.0000°E)
Time: 23:37:50
(UTC+02:00)

OPAL - Visible Passes

Search period start: 23 April 2017 00:00
Search period end: 03 May 2017 00:00
Orbit: 743 x 796 km, 100.2° (Epoch: 22 April)

Date Brightness Start Highest point End Pass type
(mag) Time Alt. Az. Time Alt. Az. Time Alt. Az.
23 Apr 10.2 05:57:12 10° ENE 06:00:15 16° ESE 06:03:18 10° SE visible
24 Apr 7.4 06:58:25 10° NNE 07:03:26 85° WNW 07:08:33 10° SSW visible
25 Apr 9.1 06:23:34 10° NE 06:28:05 34° ESE 06:32:39 10° SSE visible
26 Apr 10.4 05:50:55 10° E 05:52:47 12° ESE 05:54:39 10° SE visible
26 Apr 8.0 07:26:39 10° N 07:31:19 39° WNW 07:36:04 10° SW visible
27 Apr 7.7 06:50:56 10° NNE 06:55:57 73° ESE 07:01:04 10° S visible
28 Apr 9.6 06:16:28 10° NE 06:20:36 26° ESE 06:24:48 10° SSE visible
29 Apr 7.7 07:18:56 10° N 07:23:49 53° WNW 07:28:49 10° SSW visible
30 Apr 8.2 06:43:32 10° NNE 06:48:28 54° ESE 06:53:28 10° S visible
01 May 10.0 06:09:31 10° ENE 06:13:08 20° ESE 06:16:46 10° SSE visible
02 May 7.5 07:11:18 10° N 07:16:20 71° WNW 07:21:28 10° SSW visible
